User: anonymous   Login
Location: Unspecified
(0.0000°N, 0.0000°E)
Time: 01:17:43
(UTC+00:00)
Language:

ATS 1 - Orbit

View from above orbital plane
View from above orbital plane
View from above satellite
View from above satellite

Ground track
Ground track

The orbit data is extracted from the following two-line orbital elements,

1  2608U 66110A   19021.82331698  .00000039  00000-0  00000+0 0  9994
2  2608   1.6886 300.4913 0005731 301.3190 353.3904  1.00308714107672
Epoch (UTC): 21 January 2019 19:45:34
Eccentricity: 0.0005731
inclination: 1.6886°
perigee height: 35752 km
apogee height: 35800 km
right ascension of ascending node: 300.4913°
argument of perigee: 301.3190°
revolutions per day: 1.00308714
mean anomaly at epoch: 353.3904°
orbit number at epoch: 10767

The dashed part of the orbit path shows where the satellite is in the earth's shadow,  

DLR